Regional Weather Roundup
Issued by NWS

Home | Current Version | Previous Version | Text Only | Print | Product List | Glossary Off
Versions: 1 2 3 4 5 6 7 8 9 10 11 12 13 14 15 16 17 18 19 20 21 22 23 24 25 26 27 28 29 30 31 32 33 34 35 36 37 38 39 40 41 42 43 44 45 46 47 48 49 50

000
ASUS43 KFSD 260102
RWRSD

WEATHER ROUNDUP FOR SOUTH DAKOTA
NATIONAL WEATHER SERVICE SIOUX FALLS SD
800 PM CDT SUN JUN 25 2017

NOTE: "FAIR" INDICATES FEW OR NO CLOUDS BELOW 12,000 FEET WITH NO
SIGNIFICANT WEATHER AND/OR OBSTRUCTIONS TO VISIBILITY.


SDZ001>005-009-010-012>017-260200-
NORTHWEST AND NORTH CENTRAL SOUTH DAKOTA

CITY           SKY/WX    TMP DP  RH WIND       PRES   REMARKS
BUFFALO          N/A     74  35  24 NE21      30.15S
FAITH            N/A     73  38  27 NE14      30.18R
MOBRIDGE       SUNNY     72  40  31 N12G18    30.17R
$$

SDZ012>016-024>037-041>051-057-063-072>074-260200-
SOUTHWEST AND SOUTH CENTRAL SOUTH DAKOTA

CITY           SKY/WX    TMP DP  RH WIND       PRES   REMARKS
RAPID CTY ARPT PTSUNNY   78  30  17 N18G28    30.18F
PIERRE         SUNNY     73  41  31 NE22      30.12S
CUSTER         MOSUNNY   67  34  29 NE14G23   30.30R
ELLSWORTH AFB  MOSUNNY   78  29  16 N18G28    30.18S
PHILIP         MOSUNNY   81  33  17 CALM      30.13F
PINE RIDGE     CLOUDY    76  46  34 E6        30.18F
SPEARFISH      FAIR      72  32  23 N10       30.25S
WINNER         FAIR      79  37  22 S10       30.15F
$$

SDZ004>011-016>023-039-040-260200-
NORTHEAST SOUTH DAKOTA

CITY           SKY/WX    TMP DP  RH WIND       PRES   REMARKS
ABERDEEN       SUNNY     65  49  56 N5        30.19S
WATERTOWN      CLOUDY    58  50  75 CALM      30.18F
BROOKINGS      PTSUNNY   60  45  57 NE9       30.20F
SISSETON         N/A     62  46  55 NW8       30.17F
$$

SDZ017-020-022-023-036>040-048>070-260200-
SOUTHEAST SOUTH DAKOTA

CITY           SKY/WX    TMP DP  RH WIND       PRES   REMARKS
SIOUX FALLS    MOSUNNY   70  48  45 N6        30.18F
HURON          MOSUNNY   66  47  50 E10       30.15F
CHAMBERLAIN    MOSUNNY   77  41  27 SE5       30.14S
MITCHELL       PTSUNNY   71  45  39 N9        30.18R
YANKTON        SUNNY     71  43  36 SE8       30.18F
$$

ABBREVIATIONS USED IN REMARKS
   TC - TEMPERATURE IN CELSIUS
  WCI - WIND CHILL INDEX
   HX - HEAT INDEX
  VSB - VISIBILITY





USA.gov is the U.S. government's official web portal to all federal, state and local government web resources and services.